Regional Weather Roundup
Issued by NWS Grand Forks, ND

Home | Current Version | Previous Version | Graphics & Text | Print | Product List | Glossary On
Versions: 1 2 3 4 5 6 7 8 9 10 11 12 13 14 15 16 17 18 19 20 21 22 23 24 25 26 27 28 29 30 31 32 33 34 35 36 37 38 39 40 41 42 43 44 45 46 47 48 49 50
000
ASUS43 KFGF 011010
RWRFGF
PRAIRIE TO PINES  WEATHER ROUNDUP
NATIONAL WEATHER SERVICE EASTERN NORTH DAKOTA/GRAND FORKS ND
500 AM CDT MON SEP 01 2014

 **SATELLITE DATA USED TO AUGMENT SKY COVER AT AUTOMATED STATIONS**
 *****  WEATHER ACROSS EASTERN NORTH DAKOTA  *****

CITY           SKY/WX    TMP DP  RH WIND       PRES   REMARKS
GRAND FORKS    MOCLDY    53  52  96 W5        29.67R
GRAND FRKS AFB MOCLDY    54  54 100 NW5       29.68R
GRAND FRKS NWS   N/A     52 N/A N/A NW1         N/A
DEVILS LAKE    MOCLDY    55  50  82 W9        29.69F
FARGO          MOCLDY    54  52  93 W5        29.68S
WAHPETON ARPT  CLOUDY    54  52  94 NW6       29.69S
$$

 ***** WEATHER ACROSS CENTRAL AND WESTERN NORTH DAKOTA  *****

CITY           SKY/WX    TMP DP  RH WIND       PRES   REMARKS
BISMARCK       CLEAR     53  52  96 CALM      29.78F
MINOT          PTCLDY    51  49  92 SW6       29.73F
JAMESTOWN      PTCLDY    57  54  89 W8        29.73R
MINOT AFB      PTCLDY    49  49  99 W3        29.73F
GARRISON         N/A     49  49 100 CALM      29.77S
WILLISTON      CLEAR     50  47  89 SW5       29.79R
DICKINSON      PTCLDY    50  45  83 W7        29.79S
HETTINGER      CLEAR     47  44  90 N14       29.85S
$$

 *****  OTHER AIRPORT OBSERVATIONS IN OUR AREA  *****

CITY           SKY/WX    TMP DP  RH WIND       PRES   REMARKS
WALHALLA       FAIR      52  52 100 W3        29.67S
GRAFTON AIRPOR FAIR      55  55 100 W7        29.67R
VALLEY CITY AR FAIR      55  55 100 NW7       29.72R
CANDO          FAIR      50  48  93 NW3       29.71S
CAVALIER APRT  FAIR      50  50 100 W5        29.67R
GWINNER        SUNNY     57  57 100 W8        29.73S
SHEYENNE NWR     N/A     55  54  97 W3        29.95S
ROLLA          FAIR      50  50 100 W7        29.72S
 ***** THE ABOVE OBSERVATIONS ARE NON NWS ARE NOT QUALITY
       CONTROLLED AND MAY MIS-REPORT RAIN FOR SNOW...
$$

  *****  WEATHER ACROSS NORTHERN MINNESOTA  *****

CITY           SKY/WX    TMP DP  RH WIND       PRES   REMARKS
FLAG ISLAND    CLOUDY    61  57  88 W14       29.59S
WARROAD        CLOUDY    57  54  88 W6        29.63R
ROSEAU         MOCLDY    61  55  82 W5        29.63S
HALLOCK        CLOUDY    55  55 100 NW5       29.65S
THF RVR FALLS  CLOUDY    57  57 100 NW9       29.67R
BAUDETTE       CLOUDY    59  57  93 NW8       29.60R
WASKISH        CLOUDY    61  57  88 W10       29.63R
CROOKSTON      MOCLDY    52  52 100 CALM      29.68R
$$
  *****  WEATHER ACROSS CENTRAL AND WEST MINNESOTA  *****

CITY           SKY/WX    TMP DP  RH WIND       PRES   REMARKS
FOSSTON        CLOUDY    55  55 100 NW5       29.68R FOG
BEMIDJI        CLOUDY    57  57  98 W7        29.65S
PARK RAPIDS    MOCLDY    57  57 100 NW5       29.66R
ELBOW LAKE     FAIR      58  58  99 NW3       29.69S FOG
WADENA         CLOUDY    59  57  94 W6        29.67R
DETROIT LAKES  CLOUDY    57  55  94 NW5       29.69S
MOORHEAD       MOCLDY    55  55 100 NW5       29.70R
FERGUS FALLS   CLOUDY    55  55 100 NW5       29.69R
MORRIS MN      CLOUDY    63  63 100 NW8       29.68S
STAPLES        MOCLDY    57  57 100 W6        29.66S
$$
  *****  WEATHER ELSEWHERE ACROSS MINNESOTA  *****

CITY           SKY/WX    TMP DP  RH WIND       PRES   REMARKS
DULUTH         LGT RAIN  64  62  93 W9        29.59R
INTRNTL FALLS  CLOUDY    59  58  96 W6        29.57F
ELY            LGT RAIN  61  61 100 W5        29.57S
CLOQUET        RAIN      64  63  94 W7        29.60R
WHEATON        CLOUDY    57  55  94 W3        29.71S
BRAINERD       MOCLDY    62  60  93 NW6       29.63S
HIBBING        CLOUDY    62  58  86 NW7       29.61R
ALEXANDRIA     CLOUDY    64  62  93 W7        29.69S
SAINT CLOUD    CLOUDY    67  64  90 W9        29.63S
MINNEAPOLIS    CLOUDY    66  64  93 SW9       29.64F
$$

  *****  WEATHER ACROSS SOUTH DAKOTA  *****

CITY           SKY/WX    TMP DP  RH WIND       PRES   REMARKS
SIOUX FALLS    CLOUDY    64  61  90 NW7       29.72R
BROOKINGS      NOT AVBL
WATERTOWN      CLOUDY    60  59  96 NW5       29.73S
HURON          MOCLDY    58  57  97 W6        29.74R
SISSETON         N/A     60  58  92 NW6       29.70S
ABERDEEN       MOCLDY    57  56  96 NW3       29.73S
MITCHELL       PTCLDY    61  59  93 W6        29.76R
PIERRE         CLEAR     55  53  93 SW6       29.80R
MOBRIDGE       CLEAR     55  54  96 NW9       29.77R
RAPID CITY     PTCLDY    50  46  86 NW6       29.90S
$$

  *****  SOME WEATHER IN NEARBY STATES *****

CITY           SKY/WX    TMP DP  RH WIND       PRES   REMARKS
GLASGOW MT     PTCLDY    51  49  92 W3        29.84S
GREAT FALLS MT FAIR      46  39  76 SW8       29.94R
CHEYENNE WY    CLOUDY    47  42  83 W7        30.07F
SCOTTSBLUFF NE CLEAR     50  48  93 NW3       29.99R
OMAHA NE       CLOUDY    69  65  86 SW5       29.73R
DES MOINES IA  CLOUDY    68  64  87 S7        29.71S
DAVENPORT IA   CLOUDY    65  62  90 SE9       29.74F
CHICAGO IL     MOCLDY    72  67  84 S10       29.80F
EAU CLAIRE WI  CLOUDY    65  64  97 CALM      29.65F
LA CROSSE WI   CLOUDY    67  61  81 SE5       29.63F
$$

  *****  SOME NATIONAL WEATHER *****

CITY           SKY/WX    TMP DP  RH WIND       PRES   REMARKS
LA GUARDIA NY  CLOUDY    76  71  85 CALM      29.99R
RALEIGH NC     PTCLDY    73  71  93 SW3       30.10R
ATLANTA GA     CLOUDY    75  70  84 CALM      30.12R
NEW ORLEANS LA MOCLDY    81  76  84 E3        30.00R
OKLAHOMA CITY  PTCLDY    79  69  71 S20G30    29.79S
ALBUQUERQUE NM CLEAR     70  39  32 SE8       30.08R
SALT LAKE CITY FAIR      58  38  47 SE7       30.00S
LOS ANGELES CA MOCLDY    72  64  78 E8        29.81F
BOISE ID       FAIR      55  42  61 S3        30.02R
SEATTLE WA     MOCLDY    59  54  83 S3        30.07F
$$

*** WEATHER ACROSS MANITOBA...SASKATCHEWAN AND ONTARIO ***
                ***ONTARIO***

CITY           SKY/WX    TMP DP  RH WIND       PRES   REMARKS
GERALDTON      CLOUDY    59  59 100 S10       29.60
THUNDER BAY    CLOUDY    64  63  94 CALM      29.53F
SIOUX LOOKOUT  DRIZZLE   61  59  94 W7        29.50F
TORONTO        CLOUDY    66  63  88 CALM      29.96F
BIG TROUT LK   LGT RAIN  55  54  94 E6        29.51F FOG
PICKLE LAKE    NOT AVBL
DRYDEN         CLOUDY    59  57  94 W10       29.54R FOG
KENORA         CLOUDY    57  57 100 NW6       29.58F
$$
                *** MANITOBA***

CITY           SKY/WX    TMP DP  RH WIND       PRES   REMARKS
BRANDON        CLEAR     46  46 100 W5        29.70S
DAUPHIN        PTCLDY    54  50  87 W9        29.65F
ISLAND LAKE    MOCLDY    57  57 100 CALM      29.55R
PILOT MOUND      N/A     46  46 100 W2          N/A
THE PAS        PTCLDY    54  50  87 W8        29.59S
THOMPSON       PTCLDY    41  41 100 CALM      29.54S
WINNIPEG       PTCLDY    50  50 100 W5        29.65S
LYNN LAKE      CLEAR     43  41  93 MISG      29.58R
CHURCHILL      FOG       52  52 100 SW5       29.51S VSB 1/2
GILLAM         DRIZZLE   55  55 100 W3        29.52  FOG
$$
                ***SASKATCHEWAN***

CITY           SKY/WX    TMP DP  RH WIND       PRES   REMARKS
ESTEVAN        TSTM     N/A N/A N/A W6          N/A
KINDERSLEY     CLEAR     41  39  93 W7        29.81S
LLOYDMINSTER   CLEAR     43  41  93 W10       29.76S
PRINCE ALBERT  CLOUDY    46  45  93 W3        29.68S
REGINA         NOT AVBL
YORKTON        CLOUDY    54  48  82 SW8       29.71S
N. BATTLEFORD  CLEAR     43  41  93 SW3       29.76F
LA RONGE       CLOUDY    52  48  87 W3        29.66R
SASKATOON      CLEAR     39  39 100 W7        29.76R
SWIFT CURRENT  CLEAR     45  43  93 SW10      29.83R
$$
NOTE: THESE ARE AUTOMATED STATIONS WITH LIMITED QUALITY CONTROL
      "FAIR" INDICATES FEW OR NO CLOUDS BELOW 12,000 FEET WITH NO
      SIGNIFICANT WEATHER AND/OR OBSTRUCTIONS TO VISIBILITY.
      SKY/WX - SKY CONDITION AND SIGNIFICANT WEATHER.
      TMP - AIR TEMPERATURE.    DP   - DEWPOINT TEMPERATURE.
      RH  - RELATIVE HUMIDITY.  PRES - PRESSURE.
      HX  - HEAT INDEX.         WCI  - WIND CHILL INDEX.
$



USA.gov is the U.S. government's official web portal to all federal, state and local government web resources and services.